ITY327 LIBP-LICA

Flight info

Callsign ITY327
Flight time 0h 51m
Altitude 39000
Route ASPIR DCT ERIKA DCT KUTID DCT CRN
Aircraft A20N/M-SDE2E3FGHIRWXY/LB1

Departure

Time 2026-04-20 15:41
Airport Abruzzo Airport (LIBP)

Arrival

Time 2026-04-20 16:32
Airport Lamezia Terme Sant'Eufemia International Airport (LICA)
Time Latitude Longitude Altitude Speed Heading
2026-04-20 15:31 42.42999 14.18699 44 ft 0 kts 128°
2026-04-20 15:36 42.43004 14.18690 46 ft 3 kts 136°
2026-04-20 15:36 42.43027 14.18669 45 ft 4 kts 161°
2026-04-20 15:36 42.43056 14.18663 45 ft 4 kts 188°
2026-04-20 15:37 42.43079 14.18672 44 ft 0 kts 209°
2026-04-20 15:38 42.43070 14.18665 44 ft 4 kts 211°
2026-04-20 15:38 42.43041 14.18631 45 ft 7 kts 234°
2026-04-20 15:38 42.43018 14.18550 47 ft 11 kts 259°
2026-04-20 15:39 42.42982 14.18440 48 ft 14 kts 216°
2026-04-20 15:39 42.42898 14.18351 46 ft 17 kts 219°
2026-04-20 15:39 42.42792 14.18241 49 ft 21 kts 217°
2026-04-20 15:39 42.42668 14.18113 51 ft 24 kts 218°
2026-04-20 15:40 42.42528 14.17966 52 ft 27 kts 218°
2026-04-20 15:40 42.42373 14.17804 54 ft 29 kts 217°
2026-04-20 15:40 42.42267 14.17586 50 ft 29 kts 263°
2026-04-20 15:40 42.42367 14.17463 54 ft 15 kts 20°
2026-04-20 15:41 42.42458 14.17596 52 ft 43 kts 46°
2026-04-20 15:41 42.42874 14.18034 48 ft 108 kts 38°
2026-04-20 15:41 42.43597 14.18778 179 ft 143 kts 38°
2026-04-20 15:41 42.44407 14.19592 691 ft 143 kts 37°
2026-04-20 15:42 42.45197 14.20384 1369 ft 144 kts 39°
2026-04-20 15:42 42.46017 14.21230 1855 ft 155 kts 39°
2026-04-20 15:42 42.46916 14.22178 2243 ft 173 kts 38°
2026-04-20 15:42 42.47914 14.23237 2588 ft 192 kts 38°
2026-04-20 15:43 42.49018 14.24409 2881 ft 211 kts 39°
2026-04-20 15:43 42.49926 14.26029 3227 ft 223 kts 70°
2026-04-20 15:43 42.50029 14.28130 3705 ft 229 kts 105°
2026-04-20 15:43 42.49263 14.30003 4283 ft 230 kts 139°
2026-04-20 15:44 42.47880 14.31014 4933 ft 228 kts 172°
2026-04-20 15:44 42.46251 14.31033 5349 ft 245 kts 190°
2026-04-20 15:44 42.44488 14.30670 5829 ft 267 kts 188°
2026-04-20 15:44 42.42623 14.30741 6685 ft 277 kts 174°
2026-04-20 15:45 42.40750 14.31456 7684 ft 285 kts 161°
2026-04-20 15:45 42.38939 14.32627 8702 ft 292 kts 154°
2026-04-20 15:45 42.37170 14.34047 9698 ft 299 kts 151°
2026-04-20 15:45 42.35389 14.35593 10478 ft 313 kts 150°
2026-04-20 15:46 42.33495 14.37259 10877 ft 337 kts 150°
2026-04-20 15:46 42.31464 14.39037 11339 ft 356 kts 149°
2026-04-20 15:46 42.29362 14.40866 12170 ft 362 kts 149°
2026-04-20 15:46 42.27232 14.42710 13072 ft 367 kts 149°
2026-04-20 15:47 42.25069 14.44575 13937 ft 372 kts 149°
2026-04-20 15:47 42.22867 14.46470 14705 ft 377 kts 149°
2026-04-20 15:47 42.20633 14.48388 15459 ft 383 kts 149°
2026-04-20 15:47 42.18370 14.50329 16215 ft 388 kts 149°
2026-04-20 15:48 42.16074 14.52298 16967 ft 394 kts 150°
2026-04-20 15:48 42.13740 14.54296 17698 ft 400 kts 150°
2026-04-20 15:48 42.11375 14.56320 18415 ft 405 kts 150°
2026-04-20 15:48 42.08983 14.58365 19063 ft 409 kts 150°
2026-04-20 15:49 42.06561 14.60433 19749 ft 413 kts 150°
2026-04-20 15:49 42.04154 14.62487 20357 ft 418 kts 150°
2026-04-20 15:49 42.01644 14.64624 20548 ft 437 kts 150°
2026-04-20 15:49 41.99022 14.66853 20658 ft 455 kts 149°
2026-04-20 15:50 41.96300 14.69166 20763 ft 471 kts 149°
2026-04-20 15:50 41.93479 14.71562 20871 ft 487 kts 149°
2026-04-20 15:50 41.90607 14.74002 20936 ft 481 kts 149°
2026-04-20 15:50 41.87848 14.76349 20937 ft 458 kts 149°
2026-04-20 15:51 41.85216 14.78585 20938 ft 436 kts 150°
2026-04-20 15:51 41.82710 14.80710 20939 ft 418 kts 150°
2026-04-20 15:51 41.80236 14.82799 20942 ft 424 kts 150°
2026-04-20 15:51 41.77732 14.84909 20945 ft 425 kts 150°
2026-04-20 15:52 41.75236 14.87012 20941 ft 423 kts 150°
2026-04-20 15:52 41.72742 14.89114 20943 ft 424 kts 150°
2026-04-20 15:52 41.70277 14.91175 20946 ft 423 kts 150°
2026-04-20 15:53 41.65266 14.95357 20942 ft 425 kts 150°
2026-04-20 15:53 41.62754 14.97463 20944 ft 425 kts 150°
2026-04-20 15:53 41.60248 14.99569 20951 ft 426 kts 150°
2026-04-20 15:53 41.57737 15.01678 20950 ft 426 kts 150°
2026-04-20 15:54 41.55227 15.03783 20950 ft 426 kts 150°
2026-04-20 15:54 41.52716 15.05884 20954 ft 426 kts 150°
2026-04-20 15:54 41.50209 15.07982 20953 ft 426 kts 150°
2026-04-20 15:54 41.47700 15.10080 20954 ft 426 kts 150°
2026-04-20 15:55 41.45190 15.12176 20949 ft 426 kts 150°
2026-04-20 15:55 41.42677 15.14274 20952 ft 426 kts 150°
2026-04-20 15:55 41.40161 15.16370 20953 ft 426 kts 150°
2026-04-20 15:55 41.37645 15.18466 20950 ft 428 kts 150°
2026-04-20 15:56 41.35114 15.20572 20950 ft 428 kts 150°
2026-04-20 15:56 41.32590 15.22670 20951 ft 428 kts 150°
2026-04-20 15:56 41.30095 15.24742 20953 ft 428 kts 150°
2026-04-20 15:56 41.27565 15.26840 20953 ft 428 kts 150°
2026-04-20 15:57 41.25034 15.28937 20965 ft 428 kts 150°
2026-04-20 15:57 41.22515 15.31023 20957 ft 427 kts 150°
2026-04-20 15:57 41.19993 15.33109 20958 ft 427 kts 150°
2026-04-20 15:57 41.17470 15.35194 20960 ft 427 kts 150°
2026-04-20 15:58 41.14946 15.37277 20960 ft 428 kts 150°
2026-04-20 15:58 41.12415 15.39367 20965 ft 429 kts 150°
2026-04-20 15:58 41.09887 15.41453 20967 ft 428 kts 150°
2026-04-20 15:58 41.07358 15.43536 20969 ft 428 kts 150°
2026-04-20 15:59 41.04826 15.45619 20977 ft 428 kts 150°
2026-04-20 15:59 41.02287 15.47705 20977 ft 428 kts 150°
2026-04-20 15:59 40.99758 15.49780 20978 ft 428 kts 150°
2026-04-20 15:59 40.97260 15.51828 20985 ft 428 kts 150°
2026-04-20 16:00 40.94725 15.53904 20987 ft 429 kts 150°
2026-04-20 16:00 40.92190 15.55979 20969 ft 429 kts 151°
2026-04-20 16:00 40.89649 15.58057 20987 ft 430 kts 151°
2026-04-20 16:00 40.87105 15.60135 20996 ft 430 kts 151°
2026-04-20 16:01 40.84564 15.62208 20992 ft 429 kts 151°
2026-04-20 16:01 40.82021 15.64282 20998 ft 429 kts 151°
2026-04-20 16:01 40.79481 15.66350 20987 ft 428 kts 151°
2026-04-20 16:01 40.76944 15.68411 20997 ft 429 kts 152°
2026-04-20 16:02 40.74396 15.70463 20988 ft 428 kts 152°
2026-04-20 16:02 40.71862 15.72504 20824 ft 426 kts 151°
2026-04-20 16:02 40.69333 15.74548 20598 ft 426 kts 151°
2026-04-20 16:02 40.66802 15.76599 20424 ft 428 kts 151°
2026-04-20 16:03 40.64256 15.78663 20601 ft 430 kts 151°
2026-04-20 16:03 40.61703 15.80713 20763 ft 429 kts 152°
2026-04-20 16:03 40.59151 15.82741 20875 ft 429 kts 152°
2026-04-20 16:03 40.56598 15.84779 20960 ft 430 kts 152°
2026-04-20 16:04 40.54086 15.86799 20827 ft 428 kts 152°
2026-04-20 16:04 40.51554 15.88845 20517 ft 425 kts 152°
2026-04-20 16:04 40.49032 15.90887 20254 ft 425 kts 152°
2026-04-20 16:04 40.46501 15.92937 20265 ft 429 kts 152°
2026-04-20 16:05 40.44815 15.94299 20568 ft 430 kts 152°
2026-04-20 16:05 40.42272 15.96350 20674 ft 428 kts 152°
2026-04-20 16:05 40.39727 15.98399 20776 ft 428 kts 152°
2026-04-20 16:05 40.37179 16.00431 20898 ft 428 kts 152°
2026-04-20 16:06 40.33811 16.03115 21005 ft 427 kts 152°
2026-04-20 16:06 40.32095 16.04486 21008 ft 428 kts 152°
2026-04-20 16:06 40.29556 16.06522 21019 ft 427 kts 151°
2026-04-20 16:06 40.27024 16.08555 21010 ft 428 kts 151°
2026-04-20 16:07 40.24486 16.10592 21000 ft 428 kts 151°
2026-04-20 16:07 40.21948 16.12626 20985 ft 428 kts 151°
2026-04-20 16:07 40.19406 16.14662 20762 ft 429 kts 152°
2026-04-20 16:07 40.16899 16.16667 20507 ft 427 kts 152°
2026-04-20 16:08 40.14374 16.18684 20263 ft 424 kts 152°
2026-04-20 16:08 40.11860 16.20689 20024 ft 422 kts 152°
2026-04-20 16:08 40.09361 16.22680 19766 ft 420 kts 152°
2026-04-20 16:08 40.06867 16.24665 19523 ft 419 kts 152°
2026-04-20 16:09 40.04382 16.26640 19286 ft 417 kts 152°
2026-04-20 16:09 40.01904 16.28608 19043 ft 416 kts 152°
2026-04-20 16:09 39.99439 16.30564 18813 ft 414 kts 152°
2026-04-20 16:09 39.96981 16.32513 18578 ft 413 kts 152°
2026-04-20 16:10 39.94535 16.34449 18336 ft 410 kts 152°
2026-04-20 16:10 39.92107 16.36367 18064 ft 406 kts 151°
2026-04-20 16:10 39.89707 16.38264 17784 ft 399 kts 151°
2026-04-20 16:10 39.87326 16.40144 17518 ft 402 kts 151°
2026-04-20 16:11 39.84937 16.42030 17252 ft 401 kts 151°
2026-04-20 16:11 39.82558 16.43905 16997 ft 398 kts 151°
2026-04-20 16:11 39.80192 16.45769 16744 ft 397 kts 151°
2026-04-20 16:11 39.77837 16.47622 16488 ft 395 kts 151°
2026-04-20 16:12 39.75494 16.49464 16225 ft 393 kts 151°
2026-04-20 16:12 39.73187 16.51276 15978 ft 391 kts 151°
2026-04-20 16:12 39.70861 16.53101 15730 ft 390 kts 151°
2026-04-20 16:12 39.68539 16.54922 15480 ft 389 kts 151°
2026-04-20 16:13 39.66231 16.56730 15236 ft 387 kts 151°
2026-04-20 16:13 39.63931 16.58531 14987 ft 384 kts 151°
2026-04-20 16:13 39.61647 16.60317 14748 ft 383 kts 151°
2026-04-20 16:13 39.59366 16.62099 14507 ft 381 kts 151°
2026-04-20 16:14 39.57099 16.63870 14261 ft 380 kts 151°
2026-04-20 16:14 39.54839 16.65633 14026 ft 379 kts 150°
2026-04-20 16:14 39.52584 16.67392 13788 ft 376 kts 151°
2026-04-20 16:14 39.50374 16.69113 13530 ft 375 kts 150°
2026-04-20 16:15 39.48142 16.70850 13268 ft 374 kts 150°
2026-04-20 16:15 39.45917 16.72579 13002 ft 372 kts 150°
2026-04-20 16:15 39.43704 16.74300 12732 ft 371 kts 150°
2026-04-20 16:15 39.41497 16.76015 12497 ft 369 kts 150°
2026-04-20 16:16 39.39296 16.77722 12229 ft 367 kts 150°
2026-04-20 16:16 39.37110 16.79417 11971 ft 365 kts 150°
2026-04-20 16:16 39.34939 16.81099 11726 ft 363 kts 150°
2026-04-20 16:16 39.32777 16.82772 11479 ft 361 kts 150°
2026-04-20 16:17 39.30624 16.84437 11235 ft 360 kts 150°
2026-04-20 16:17 39.28479 16.86095 10986 ft 358 kts 150°
2026-04-20 16:17 39.26345 16.87744 10739 ft 357 kts 150°
2026-04-20 16:17 39.24214 16.89390 10506 ft 356 kts 150°
2026-04-20 16:18 39.22121 16.91005 10377 ft 343 kts 150°
2026-04-20 16:18 39.20138 16.92535 10263 ft 329 kts 150°
2026-04-20 16:18 39.18209 16.94023 10153 ft 317 kts 150°
2026-04-20 16:18 39.16334 16.95455 9856 ft 311 kts 151°
2026-04-20 16:19 39.14496 16.96855 9662 ft 302 kts 151°
2026-04-20 16:19 39.12682 16.98242 9530 ft 305 kts 150°
2026-04-20 16:19 39.10866 16.99636 9399 ft 303 kts 150°
2026-04-20 16:19 39.09058 17.01027 9270 ft 302 kts 150°
2026-04-20 16:20 39.07254 17.02415 9138 ft 302 kts 150°
2026-04-20 16:20 39.05457 17.03797 9008 ft 301 kts 150°
2026-04-20 16:20 39.03653 17.05156 8879 ft 299 kts 155°
2026-04-20 16:20 39.01671 17.05801 8749 ft 293 kts 182°
2026-04-20 16:21 38.99707 17.05288 8626 ft 288 kts 208°
2026-04-20 16:21 38.98154 17.03749 8484 ft 281 kts 235°
2026-04-20 16:21 38.97263 17.01556 8368 ft 277 kts 251°
2026-04-20 16:21 38.96555 16.99248 8239 ft 277 kts 251°
2026-04-20 16:22 38.95841 16.96952 8112 ft 276 kts 250°
2026-04-20 16:22 38.95110 16.94667 7996 ft 277 kts 250°
2026-04-20 16:22 38.94375 16.92419 7869 ft 276 kts 249°
2026-04-20 16:22 38.93625 16.90154 7748 ft 276 kts 249°
2026-04-20 16:23 38.92871 16.87890 7629 ft 274 kts 249°
2026-04-20 16:23 38.92120 16.85637 7524 ft 275 kts 249°
2026-04-20 16:23 38.91366 16.83379 7401 ft 274 kts 249°
2026-04-20 16:23 38.90613 16.81126 7278 ft 274 kts 249°
2026-04-20 16:24 38.89863 16.78879 7144 ft 272 kts 249°
2026-04-20 16:24 38.89117 16.76646 7035 ft 273 kts 249°
2026-04-20 16:24 38.88375 16.74426 6923 ft 273 kts 249°
2026-04-20 16:24 38.87629 16.72194 6796 ft 272 kts 249°
2026-04-20 16:25 38.86883 16.69961 6674 ft 272 kts 249°
2026-04-20 16:25 38.86134 16.67740 6559 ft 271 kts 250°
2026-04-20 16:25 38.85388 16.65516 6446 ft 273 kts 250°
2026-04-20 16:25 38.84811 16.63242 6314 ft 264 kts 262°
2026-04-20 16:26 38.84622 16.60903 6199 ft 263 kts 272°
2026-04-20 16:26 38.84736 16.58568 6066 ft 260 kts 279°
2026-04-20 16:26 38.85016 16.56316 5995 ft 248 kts 283°
2026-04-20 16:26 38.85342 16.54242 5991 ft 225 kts 285°
2026-04-20 16:27 38.85660 16.52372 5992 ft 203 kts 285°
2026-04-20 16:27 38.85959 16.50675 5997 ft 190 kts 285°
2026-04-20 16:27 38.86240 16.49060 6000 ft 182 kts 285°
2026-04-20 16:27 38.86532 16.47589 5919 ft 160 kts 291°
2026-04-20 16:28 38.86889 16.46290 5688 ft 153 kts 288°
2026-04-20 16:28 38.87151 16.44982 5335 ft 151 kts 284°
2026-04-20 16:28 38.87354 16.43633 4870 ft 157 kts 279°
2026-04-20 16:28 38.87543 16.42260 4500 ft 152 kts 283°
2026-04-20 16:29 38.87814 16.40998 4180 ft 142 kts 288°
2026-04-20 16:29 38.88139 16.39786 3750 ft 144 kts 288°
2026-04-20 16:29 38.88470 16.38565 3345 ft 147 kts 284°
2026-04-20 16:29 38.88759 16.37311 3036 ft 142 kts 281°
2026-04-20 16:30 38.89012 16.36159 2853 ft 127 kts 282°
2026-04-20 16:30 38.89234 16.35050 2678 ft 127 kts 277°
2026-04-20 16:30 38.89371 16.33947 2521 ft 125 kts 277°
2026-04-20 16:30 38.89479 16.32836 2299 ft 126 kts 277°
2026-04-20 16:31 38.89614 16.31736 1955 ft 123 kts 280°
2026-04-20 16:31 38.89780 16.30647 1582 ft 125 kts 275°
2026-04-20 16:31 38.89932 16.29512 1009 ft 132 kts 274°
2026-04-20 16:31 38.90061 16.28356 589 ft 128 kts 272°
2026-04-20 16:32 38.90188 16.27219 272 ft 128 kts 274°
2026-04-20 16:32 38.90323 16.26154 112 ft 113 kts 271°
2026-04-20 16:32 38.90440 16.25117 51 ft 112 kts 271°
2026-04-20 16:32 38.90517 16.24376 33 ft 32 kts 280°
2026-04-20 16:33 38.90546 16.24148 30 ft 26 kts 278°
2026-04-20 16:33 38.90573 16.23920 30 ft 26 kts 279°
2026-04-20 16:33 38.90618 16.23689 30 ft 27 kts 305°
2026-04-20 16:33 38.90729 16.23507 28 ft 23 kts 319°
2026-04-20 16:34 38.90838 16.23556 28 ft 20 kts 79°
2026-04-20 16:34 38.90819 16.23749 29 ft 23 kts 99°
2026-04-20 16:34 38.90792 16.23969 31 ft 26 kts 97°
2026-04-20 16:34 38.90806 16.24201 33 ft 27 kts 57°
2026-04-20 16:35 38.90895 16.24321 33 ft 6 kts
2026-04-20 16:35 38.90903 16.24309 33 ft 0 kts 296°